Погода в Ванино

Россия / Хабаровский край     49°05′27″N   140°15′22″E
темп.,
°C
ветер,
м/с
пор.,
м/с
влажн.,
%
обл.,
%
осадки,
мм/ч
давл.,
гПа
погр.,
м
6 марта, сб
сб601:00−21ссз239658 0.0 101863
04:00−21ссз129879 0.1 101945
07:00−24сз119667 0.0 102227
10:00−16сз476833 0.0 10231023
13:00−13сз476460 0.0 10221581
16:00−12зсз467174 0.1 10211213
19:00−17зсз3127291 0.0 1023383
22:00−18зсз6166546 0.0 1024541
7 марта, вс
вс701:00−19з310760 0.0 1023273
04:00−21з23800 0.0 102448
07:00−22зюз23800 0.0 102439
10:00−13з410660 0.0 1023604
13:00−9зсз376314 0.0 10211012
16:00−8зсз386557 0.0 10191014
19:00−13з257793 0.0 1019111
22:00−13зсз4127370 0.0 1020354
8 марта, пн
пн801:00−16зсз35800 0.0 1020103
04:00−17зсз23810 0.0 102035
07:00−17зсз22800 0.0 102129
10:00−9зсз26700 0.0 1021427
13:00−4з15640 0.0 1020816
16:00−3юз26660 0.0 1019905
19:00−9зюз12810 0.0 101930
22:00−11зюз23796 0.0 102035
9 марта, вт
вт901:00−11ююз2378100 0.0 101835
04:00−9ююз2282100 0.0 101762
07:00−9юз2279100 0.0 101633
10:00−5юз2474100 0.0 1013170
13:000ююз477391 0.0 1010861
16:00+1ююв368392 0.0 1007403
19:00−3ссз0190100 0.1 100623
22:00−4ссв3495100 0.3 1006154
10 марта, ср
ср1001:00−2ссв61396100 3.4 1005965
04:00−6с71593100 5.0 1006872
07:00−6ссз71588100 1.4 1010942
10:00−5с71476100 1.8 10131109
13:00−2с7127165 0.0 10151417
16:00−2ссв587382 0.1 10171194
19:00−10с129087 0.0 102041
22:00−10зсз228471 0.0 102323